Location: Wildlife_Club
(35.6000°N, 81.4330°W)
Time: 07:10:55
(UTC-04:00)

Explorer 11/Cluster Stage 4 - All Passes

Search period start: 16 June 2019 00:00
Search period end: 26 June 2019 00:00
Orbit: 467 x 1260 km, 28.8° (Epoch: 16 June)

Date Brightness Start Highest point End Pass type
(mag) Time Alt. Az. Time Alt. Az. Time Alt. Az.
16 Jun - 00:25:29 10° WSW 00:30:05 17° SSW 00:34:50 10° S visible
16 Jun - 17:02:08 10° SSW 17:05:33 20° SSE 17:09:31 10° ESE daylight
16 Jun - 18:48:30 10° WSW 18:53:28 41° S 18:59:37 10° ESE daylight
16 Jun - 20:36:09 10° WSW 20:41:58 45° S 20:49:00 10° ESE daylight
16 Jun - 22:24:41 10° WSW 22:30:41 31° SSW 22:37:26 10° SE visible
17 Jun - 00:15:33 10° WSW 00:19:14 14° SSW 00:23:03 10° S visible
17 Jun - 16:51:29 10° SSW 16:54:54 21° SSE 16:58:52 10° ESE daylight
17 Jun - 18:38:01 10° WSW 18:42:49 41° S 18:48:46 10° ESE daylight
17 Jun - 20:25:43 10° WSW 20:31:16 42° S 20:38:01 10° ESE daylight
17 Jun - 22:14:19 10° WSW 22:19:54 27° SSW 22:26:14 10° SE visible
18 Jun - 00:06:12 10° SW 00:08:25 11° SSW 00:10:41 10° SSW visible
18 Jun - 16:40:52 10° SSW 16:44:16 22° SSE 16:48:13 10° ESE daylight
18 Jun - 18:27:36 10° WSW 18:32:11 40° S 18:37:54 10° ESE daylight
18 Jun - 20:15:19 10° WSW 20:20:35 39° S 20:27:02 10° ESE daylight
18 Jun - 22:04:01 10° WSW 22:09:08 24° SSW 22:14:57 10° SSE visible
19 Jun - 16:30:18 10° SW 16:33:40 23° SSE 16:37:34 10° ESE daylight
19 Jun - 18:17:11 10° WSW 18:21:35 40° S 18:27:02 10° ESE daylight
19 Jun - 20:04:57 10° WSW 20:09:55 36° S 20:16:00 10° SE daylight
19 Jun - 21:53:50 10° WSW 21:58:24 20° SSW 22:03:34 10° SSE visible
20 Jun - 16:19:46 10° SW 16:23:05 25° SSE 16:26:55 10° ESE daylight
20 Jun - 18:06:47 10° WSW 18:11:00 38° S 18:16:12 10° ESE daylight
20 Jun - 19:54:36 10° WSW 19:59:16 32° S 20:04:57 10° SE daylight
20 Jun - 21:43:47 10° WSW 21:47:41 17° SSW 21:52:02 10° SSE visible
21 Jun - 16:09:14 10° SW 16:12:31 26° SSE 16:16:16 10° ESE daylight
21 Jun - 17:56:25 10° WSW 18:00:26 36° S 18:05:21 10° ESE daylight
21 Jun - 19:44:19 10° WSW 19:48:39 28° SSW 19:53:51 10° SE daylight
21 Jun - 21:33:59 10° SW 21:36:59 14° SSW 21:40:15 10° S visible
22 Jun - 14:13:58 10° SSE 14:14:24 10° SSE 14:14:50 10° SSE daylight
22 Jun - 15:58:45 10° SW 16:01:59 27° SSE 16:05:39 10° ESE daylight
22 Jun - 17:46:03 10° WSW 17:49:53 34° S 17:54:31 10° ESE daylight
22 Jun - 19:34:04 10° WSW 19:38:02 24° SSW 19:42:44 10° SE daylight
22 Jun - 21:24:52 10° SW 21:26:19 11° SSW 21:27:49 10° S visible
23 Jun - 14:02:25 10° S 14:03:50 12° SSE 14:05:17 10° SE daylight
23 Jun - 15:48:16 10° SW 15:51:28 27° S 15:55:01 10° ESE daylight
23 Jun - 17:35:42 10° WSW 17:39:21 32° S 17:43:41 10° ESE daylight
23 Jun - 19:23:55 10° WSW 19:27:27 20° SSW 19:31:32 10° SSE daylight
24 Jun - 13:51:21 10° SSW 13:53:17 14° SSE 13:55:13 10° SE daylight
24 Jun - 15:37:47 10° SW 15:40:58 28° S 15:44:26 10° ESE daylight
24 Jun - 17:25:22 10° WSW 17:28:49 29° S 17:32:51 10° SE daylight
24 Jun - 19:13:52 10° WSW 19:16:52 17° SSW 19:20:15 10° SSE daylight
25 Jun - 13:40:26 10° SSW 13:42:45 16° SSE 13:45:01 10° SE daylight
25 Jun - 15:27:18 10° WSW 15:30:27 28° S 15:33:50 10° ESE daylight
25 Jun - 17:15:03 10° WSW 17:18:19 26° S 17:22:01 10° SE daylight
25 Jun - 19:04:00 10° SW 19:06:17 14° SSW 19:08:48 10° SSE daylight
